WGS SV-3

operational
NORAD ID: 36108 Int'l Des: 2009-068 Owner: AFSMC Country: US
MEOCIRCULAR

WGS SV-3について

説明を読み込み中...

リアルタイム位置

3D地球を読み込み中...

次回通過

高度履歴

Altitude vs Time

uPlot chart will show altitude changes over time

軌道要素

1 36108U 09068A 26061.12701164 .00000106 00000-0 00000+0 0 9994
2 36108 0.3479 86.3532 0001985 305.8449 5.3865 1.00961054 45514
Epoch: Mar 2, 2026 • Age: 43 hours

現在のステータス

高度 35596.8 km
速度 3.08 km/s
衛星直下点 -0.07°S, 163.93°W
打ち上げ日 Dec 6, 2009
運用期間 16.2 years
タイプ other

技術仕様

分類 Payload
質量 5768.00 kg
乾燥質量 2500.00 kg
総質量 5768.00 kg
長さ 6.00 m
直径 3.00 m
スパン 40.90 m
形状 Box + 2 Pan
製造者 BOES
バスタイプ BSS-702HP
フェーズステータス In Orbit
所有者/国 AFSMC/US

大規模コンステレーション

Loading constellations...